STARLINK-38010, 69727

Orbit data source: Space-Track

STARLINK-38010, 69727 is a payload satellite owned by SpaceX/Seattle (US) in SSO that was launched on Sun, 28 Jun 2026 UTC via an FALCON 9 launch vehicle from the Air Force Western Test Range (AFWTR). Payload-class satellites include a variety of spacecraft equipped with specific instruments for various scientific and technological missions. These include communications satellites like Starlink; space stations such as the ISS; scientific satellites like the Hubble; Earth observation satellites from companies like Planet Labs, Umbra, and HawkEye 360; GPS; miniature CubeSats for education and research; and military/defense satellites.

Loading next visibility...
Identifier
69727, 2026-147Z
Orbit
SSO
Country
Flag of USUS
Related business
Manufacturer
SpaceX/Seattle
Mission
Operational Commercial Communications
Bus & Motor
STARLINK V2MO, Unknown motor
Mass
575 kg wet, ~530 kg dry
Launch date (UTC)
2026-06-28 (2 months ago)
Launch vehicle
FALCON 9
Launch site
Air Force Western Test Range (AFWTR)
Object type
Payload
Rocket body
Debris
Shape & HBR
Box + 1 Pan, 17.7 m
Radar Cross Section
41.120 m², Large (>1 m²)

Expand to show TLE details & history
Last TLE update: 13 hours ago

TLE from 13 hours ago
0 STARLINK-38010
1 69727U 26147Z   26236.83293869  .00186619  00000-0  12234-2 0  9993
2 69727  97.2819 275.2018 0000902  68.1915 291.9446 15.75218704 10258
Epoch: 2026-08-24T19:59Z
TLE epoch observation values (Epoch: 2026-08-24T19:59:25.902Z)
Latitude
-0.00006°
Longitude
2.23491°
Altitude
346.951 km
Speed
7.701 km/s
True Right ascension
18h 20m 48s
True Declination
0° 00' 00"
Sunlit
Object was in full shadow at epoch
Visualization orbit readout
Latitude
Unknown
Longitude
Unknown
Altitude
Unknown
Speed
Unknown
Apparent Right ascension
Unknown
Apparent Declination
Unknown
Sunlit
N/A
Visualization observer readout
Local Sidereal Time
00:12:42
Azimuth
Unknown
Elevation
Unknown
Doppler factor
Unknown
Orbital elements
Apogee altitude
341.502 km
Perigee altitude
340.29 km
Semi-major axis
6,719.033 km
Eccentricity
0.00009
Inclination
97.2819°
RAAN
275.2018°
Arg. of periapsis
68.1915°
True anomaly
291.93501°
Mean anomaly
291.9446°
Eccentric anomaly
291.93981°
Mean motion
3.94079 °/min
Orbital period
91.35 mins
BSTAR
0.0012234
Loading maneuver chart data...
Computing Atmospheric mass density...
Loading historical data...
Loading historical data...
Loading historical data...
Loading historical data...
Loading historical data...
Loading historical data...
Loading historical data...

Documentation

Showing up to 5 results
|